Time,TemperatureF,DewpointF,PressureIn,WindDirection,WindDirectionDegrees,WindSpeedMPH,WindSpeedGustMPH,Humidity,HourlyPrecipIn,Conditions,Clouds,dailyrainin,SoftwareType,DateUTC
2013-09-14 00:03:00,68.0,52.0,30.11,ENE,78,0.0,5.0,56,0.00,,,0.00,,2013-09-14 05:03:00,
2013-09-14 00:13:00,68.0,52.0,30.11,ENE,78,0.0,5.0,56,0.00,,,0.00,,2013-09-14 05:13:00,
2013-09-14 00:22:00,68.0,52.0,30.11,East,81,1.0,7.0,57,0.00,,,0.00,,2013-09-14 05:22:00,
2013-09-14 00:52:00,67.0,52.0,30.11,NE,38,4.0,6.0,58,0.00,,,0.00,,2013-09-14 05:52:00,
2013-09-14 01:02:00,67.0,52.0,30.11,NE,38,4.0,6.0,58,0.00,,,0.00,,2013-09-14 06:02:00,
2013-09-14 01:12:00,67.0,52.0,30.11,NE,38,4.0,6.0,58,0.00,,,0.00,,2013-09-14 06:12:00,
2013-09-14 01:21:00,67.0,52.0,30.11,East,101,3.0,7.0,58,0.00,,,0.00,,2013-09-14 06:21:00,
2013-09-14 01:32:00,67.0,52.0,30.11,East,101,3.0,7.0,58,0.00,,,0.00,,2013-09-14 06:32:00,
2013-09-14 01:52:00,67.0,52.0,30.11,NE,52,3.0,6.0,59,0.00,,,0.00,,2013-09-14 06:52:00,
2013-09-14 02:02:00,67.0,52.0,30.11,NE,52,3.0,6.0,59,0.00,,,0.00,,2013-09-14 07:02:00,
2013-09-14 02:21:00,67.0,53.0,30.11,ESE,109,4.0,7.0,60,0.00,,,0.00,,2013-09-14 07:21:00,
2013-09-14 02:34:00,67.0,53.0,30.11,ESE,109,4.0,7.0,60,0.00,,,0.00,,2013-09-14 07:34:00,
2013-09-14 02:52:00,67.0,53.0,30.10,ESE,105,2.0,10.0,60,0.00,,,0.00,,2013-09-14 07:52:00,
2013-09-14 03:02:00,67.0,53.0,30.10,ESE,105,2.0,10.0,60,0.00,,,0.00,,2013-09-14 08:02:00,
2013-09-14 03:12:00,67.0,53.0,30.10,ESE,105,2.0,10.0,60,0.00,,,0.00,,2013-09-14 08:12:00,
2013-09-14 03:22:00,65.0,51.0,30.09,East,96,2.0,4.0,61,0.00,,,0.00,,2013-09-14 08:22:00,
2013-09-14 03:32:00,65.0,51.0,30.09,East,96,2.0,4.0,61,0.00,,,0.00,,2013-09-14 08:32:00,
2013-09-14 03:52:00,65.0,52.0,30.08,SE,146,0.0,4.0,63,0.00,,,0.00,,2013-09-14 08:52:00,
2013-09-14 04:02:00,65.0,52.0,30.08,SE,146,0.0,4.0,63,0.00,,,0.00,,2013-09-14 09:02:00,
2013-09-14 04:21:00,63.0,52.0,30.07,SSW,194,1.0,2.0,67,0.00,,,0.00,,2013-09-14 09:21:00,
2013-09-14 04:33:00,63.0,52.0,30.07,SSW,194,1.0,2.0,67,0.00,,,0.00,,2013-09-14 09:33:00,
2013-09-14 04:53:00,62.0,52.0,30.07,WNW,302,0.0,2.0,69,0.00,,,0.00,,2013-09-14 09:53:00,
2013-09-14 05:03:00,62.0,52.0,30.07,WNW,302,0.0,2.0,69,0.00,,,0.00,,2013-09-14 10:03:00,
2013-09-14 05:23:00,63.0,52.0,30.06,SE,125,1.0,4.0,68,0.00,,,0.00,,2013-09-14 10:23:00,
2013-09-14 05:32:00,63.0,52.0,30.06,SE,125,1.0,4.0,68,0.00,,,0.00,,2013-09-14 10:32:00,
2013-09-14 05:53:00,61.0,52.0,30.06,East,87,1.0,1.0,71,0.00,,,0.00,,2013-09-14 10:53:00,
2013-09-14 06:02:00,61.0,52.0,30.06,East,87,1.0,1.0,71,0.00,,,0.00,,2013-09-14 11:02:00,
2013-09-14 06:22:00,60.0,52.0,30.06,West,276,0.0,3.0,74,0.00,,,0.00,,2013-09-14 11:22:00,
2013-09-14 06:33:00,60.0,52.0,30.06,West,276,0.0,3.0,74,0.00,,,0.00,,2013-09-14 11:33:00,
2013-09-14 06:52:00,60.0,52.0,30.06,WSW,246,0.0,3.0,76,0.00,,,0.00,,2013-09-14 11:52:00,
2013-09-14 07:02:00,60.0,52.0,30.06,WSW,246,0.0,3.0,76,0.00,,,0.00,,2013-09-14 12:02:00,
2013-09-14 07:12:00,60.0,52.0,30.06,WSW,246,0.0,3.0,76,0.00,,,0.00,,2013-09-14 12:12:00,
2013-09-14 07:22:00,60.0,52.0,30.07,WSW,246,0.0,1.0,75,0.00,,,0.00,,2013-09-14 12:22:00,
2013-09-14 07:32:00,60.0,52.0,30.07,WSW,246,0.0,1.0,75,0.00,,,0.00,,2013-09-14 12:32:00,
2013-09-14 07:52:00,61.0,52.0,30.07,WSW,246,0.0,1.0,73,0.00,,,0.00,,2013-09-14 12:52:00,
2013-09-14 08:21:00,61.0,53.0,30.09,WSW,246,0.0,1.0,74,0.00,,,0.00,,2013-09-14 13:21:00,
2013-09-14 08:32:00,61.0,53.0,30.09,WSW,246,0.0,1.0,74,0.00,,,0.00,,2013-09-14 13:32:00,
2013-09-14 08:52:00,61.0,53.0,30.09,WSW,246,0.0,0.0,75,0.00,,,0.00,,2013-09-14 13:52:00,
2013-09-14 09:52:00,68.0,54.0,30.11,SSE,152,1.0,2.0,61,0.00,,,0.00,,2013-09-14 14:52:00,
2013-09-14 10:02:00,68.0,54.0,30.11,SSE,152,1.0,2.0,61,0.00,,,0.00,,2013-09-14 15:02:00,
2013-09-14 10:22:00,70.0,55.0,30.11,SSE,156,2.0,9.0,59,0.00,,,0.00,,2013-09-14 15:22:00,
2013-09-14 10:33:00,70.0,55.0,30.11,SSE,156,2.0,9.0,59,0.00,,,0.00,,2013-09-14 15:33:00,
2013-09-14 10:53:00,72.0,56.0,30.12,SSW,203,1.0,7.0,57,0.00,,,0.00,,2013-09-14 15:53:00,
2013-09-14 11:03:00,72.0,56.0,30.12,SSW,203,1.0,7.0,57,0.00,,,0.00,,2013-09-14 16:03:00,
2013-09-14 11:23:00,76.0,56.0,30.12,SSE,162,3.0,7.0,50,0.00,,,0.00,,2013-09-14 16:23:00,
2013-09-14 11:33:00,76.0,56.0,30.12,SSE,162,3.0,7.0,50,0.00,,,0.00,,2013-09-14 16:33:00,
2013-09-14 11:54:00,74.0,54.0,30.12,SSW,195,6.0,17.0,50,0.00,,,0.00,,2013-09-14 16:54:00,
2013-09-14 12:03:00,74.0,54.0,30.12,SSW,195,6.0,17.0,50,0.00,,,0.00,,2013-09-14 17:03:00,
2013-09-14 12:23:00,75.0,55.0,30.12,SE,136,2.0,19.0,49,0.00,,,0.00,,2013-09-14 17:23:00,
2013-09-14 12:33:00,75.0,55.0,30.12,SE,136,2.0,19.0,49,0.00,,,0.00,,2013-09-14 17:33:00,
2013-09-14 12:54:00,78.0,56.0,30.11,SW,232,7.0,12.0,46,0.00,,,0.00,,2013-09-14 17:54:00,
2013-09-14 13:02:00,78.0,56.0,30.11,SW,232,7.0,12.0,46,0.00,,,0.00,,2013-09-14 18:02:00,
2013-09-14 13:12:00,78.0,56.0,30.11,SW,232,7.0,12.0,46,0.00,,,0.00,,2013-09-14 18:12:00,
2013-09-14 13:22:00,78.0,54.0,30.11,ENE,71,2.0,5.0,44,0.00,,,0.00,,2013-09-14 18:22:00,
2013-09-14 13:32:00,78.0,54.0,30.11,ENE,71,2.0,5.0,44,0.00,,,0.00,,2013-09-14 18:32:00,
2013-09-14 13:52:00,80.0,55.0,30.10,South,187,3.0,10.0,42,0.00,,,0.00,,2013-09-14 18:52:00,
2013-09-14 14:02:00,80.0,55.0,30.10,South,187,3.0,10.0,42,0.00,,,0.00,,2013-09-14 19:02:00,
2013-09-14 14:11:00,80.0,55.0,30.10,South,187,3.0,10.0,42,0.00,,,0.00,,2013-09-14 19:11:00,
2013-09-14 14:22:00,80.0,54.0,30.09,South,173,1.0,10.0,41,0.00,,,0.00,,2013-09-14 19:22:00,
2013-09-14 14:32:00,80.0,54.0,30.09,South,173,1.0,10.0,41,0.00,,,0.00,,2013-09-14 19:32:00,
2013-09-14 14:52:00,80.0,54.0,30.08,East,81,6.0,10.0,41,0.00,,,0.00,,2013-09-14 19:52:00,
2013-09-14 15:00:00,81.0,54.0,30.06,SE,145,5.0,9.0,39,0.00,,,0.00,,2013-09-14 20:00:00,
2013-09-14 15:02:00,80.0,54.0,30.08,East,81,6.0,10.0,41,0.00,,,0.00,,2013-09-14 20:02:00,
2013-09-14 15:22:00,81.0,54.0,30.06,SE,145,5.0,9.0,39,0.00,,,0.00,,2013-09-14 20:22:00,
2013-09-14 15:32:00,81.0,54.0,30.06,SE,145,5.0,9.0,39,0.00,,,0.00,,2013-09-14 20:32:00,
2013-09-14 15:52:00,81.0,54.0,30.06,SE,145,5.0,9.0,39,0.00,,,0.00,,2013-09-14 20:52:00,
2013-09-14 16:22:00,81.0,54.0,30.04,NE,46,2.0,6.0,39,0.00,,,0.00,,2013-09-14 21:22:00,
2013-09-14 16:33:00,81.0,54.0,30.04,NE,46,2.0,6.0,39,0.00,,,0.00,,2013-09-14 21:33:00,
2013-09-14 16:54:00,81.0,54.0,30.03,SSW,208,4.0,10.0,40,0.00,,,0.00,,2013-09-14 21:54:00,
2013-09-14 17:04:00,81.0,54.0,30.03,SSW,208,4.0,10.0,40,0.00,,,0.00,,2013-09-14 22:04:00,
2013-09-14 17:24:00,81.0,54.0,30.03,South,180,0.0,5.0,39,0.00,,,0.00,,2013-09-14 22:24:00,
2013-09-14 17:34:00,81.0,54.0,30.03,South,180,0.0,5.0,39,0.00,,,0.00,,2013-09-14 22:34:00,
2013-09-14 17:53:00,83.0,53.0,30.03,ESE,102,4.0,11.0,36,0.00,,,0.00,,2013-09-14 22:53:00,
2013-09-14 18:03:00,83.0,53.0,30.03,ESE,102,4.0,11.0,36,0.00,,,0.00,,2013-09-14 23:03:00,
2013-09-14 18:11:00,83.0,53.0,30.03,ESE,102,4.0,11.0,36,0.00,,,0.00,,2013-09-14 23:11:00,
2013-09-14 18:23:00,81.0,54.0,30.03,South,188,1.0,10.0,39,0.00,,,0.00,,2013-09-14 23:23:00,
2013-09-14 18:34:00,81.0,54.0,30.03,South,188,1.0,10.0,39,0.00,,,0.00,,2013-09-14 23:34:00,
2013-09-14 18:53:00,80.0,53.0,30.03,SE,142,2.0,5.0,39,0.00,,,0.00,,2013-09-14 23:53:00,
2013-09-14 19:02:00,80.0,53.0,30.03,SE,142,2.0,5.0,39,0.00,,,0.00,,2013-09-15 00:02:00,
2013-09-14 19:12:00,80.0,53.0,30.03,SE,142,2.0,5.0,39,0.00,,,0.00,,2013-09-15 00:12:00,
2013-09-14 19:22:00,79.0,49.0,30.05,ESE,110,8.0,13.0,35,0.00,,,0.00,,2013-09-15 00:22:00,
2013-09-14 19:32:00,79.0,49.0,30.05,ESE,110,8.0,13.0,35,0.00,,,0.00,,2013-09-15 00:32:00,
2013-09-14 19:53:00,78.0,48.0,30.06,ESE,116,6.0,11.0,35,0.00,,,0.00,,2013-09-15 00:53:00,
2013-09-14 20:01:00,78.0,48.0,30.06,ESE,116,6.0,11.0,35,0.00,,,0.00,,2013-09-15 01:01:00,
2013-09-14 20:11:00,78.0,48.0,30.06,ESE,116,6.0,11.0,35,0.00,,,0.00,,2013-09-15 01:11:00,
2013-09-14 20:22:00,76.0,47.0,30.06,ESE,113,7.0,11.0,36,0.00,,,0.00,,2013-09-15 01:22:00,
2013-09-14 20:32:00,76.0,47.0,30.06,ESE,113,7.0,11.0,36,0.00,,,0.00,,2013-09-15 01:32:00,
2013-09-14 20:42:00,76.0,47.0,30.06,ESE,113,7.0,11.0,36,0.00,,,0.00,,2013-09-15 01:42:00,
2013-09-14 20:52:00,75.0,47.0,30.06,ESE,117,4.0,10.0,37,0.00,,,0.00,,2013-09-15 01:52:00,
2013-09-14 21:02:00,75.0,47.0,30.06,ESE,117,4.0,10.0,37,0.00,,,0.00,,2013-09-15 02:02:00,
2013-09-14 21:22:00,74.0,47.0,30.05,ESE,103,3.0,12.0,38,0.00,,,0.00,,2013-09-15 02:22:00,
2013-09-14 21:32:00,74.0,47.0,30.05,ESE,103,3.0,12.0,38,0.00,,,0.00,,2013-09-15 02:32:00,
2013-09-14 21:42:00,74.0,47.0,30.05,ESE,103,3.0,12.0,38,0.00,,,0.00,,2013-09-15 02:42:00,
2013-09-14 21:52:00,72.0,47.0,30.06,ESE,103,1.0,9.0,41,0.00,,,0.00,,2013-09-15 02:52:00,
2013-09-14 22:02:00,72.0,47.0,30.06,ESE,103,1.0,9.0,41,0.00,,,0.00,,2013-09-15 03:02:00,
2013-09-14 22:22:00,72.0,49.0,30.07,ESE,123,4.0,11.0,45,0.00,,,0.00,,2013-09-15 03:22:00,
2013-09-14 22:34:00,72.0,49.0,30.07,ESE,123,4.0,11.0,45,0.00,,,0.00,,2013-09-15 03:34:00,
2013-09-14 22:55:00,71.0,50.0,30.11,NNE,33,2.0,5.0,47,0.00,,,0.00,,2013-09-15 03:55:00,
2013-09-14 23:02:00,-999.0,-99.9,30.11,NNE,33,2.0,5.0,-999,-99.99,,,-99.99,,2013-09-15 04:02:00,
2013-09-14 23:24:00,70.0,50.0,30.11,NE,49,3.0,4.0,50,0.00,,,0.00,,2013-09-15 04:24:00,
2013-09-14 23:33:00,70.0,50.0,30.11,NE,49,3.0,4.0,50,0.00,,,0.00,,2013-09-15 04:33:00,
2013-09-14 23:54:00,70.0,52.0,30.11,East,96,5.0,10.0,53,0.00,,,0.00,,2013-09-15 04:54:00,